Zurück zum Katalog

KUIPER-00428

AktivKommunikationVLEO
NORAD 69593·PAYLOAD·🇺🇸 United States

Gestartet Jun 17, 2026 von Guiana Space Centre

Loading…

Nächste Überflüge (nächste 24 Stunden)

TLE

AktuellSource: CelesTrak SupGP

Epoche: Sep 14, 2026, 19:53 UTC

1 69593C 26140B   26257.82863426  .00004013  00000+0  10603-3 0  2573
2 69593  51.8810 325.5246 0005414 250.8923   7.3623 15.37812463    19

Verfolge KUIPER-00428 in Echtzeit mit AllMySat

Download on the App Store